Weather History for Cherry Point, NC

Change the Weather History Date:

Monday, January 28, 2013

  Actual Average Record
Temperature  
Mean Temperature 44 °F -  
Max Temperature 59 °F 52 °F 127 °F (2005)
Min Temperature 30 °F 33 °F 17 °F (2003)
Degree Days  
Heating Degree Days 20    
Moisture  
Dew Point 39 °F    
Average Humidity 79    
Maximum Humidity 93    
Minimum Humidity 64    
Precipitation  
Precipitation 0.00 in - - ()
Sea Level Pressure  
Sea Level Pressure 30.39 in    
Wind  
Wind Speed 4 mph ()    
Max Wind Speed 10 mph    
Max Gust Speed -    
Visibility 9.8 miles    
Events Rain    
Averages and records for this station are not official NWS values.
T = Trace of Precipitation, MM = Missing Value Source: Averaged Metar Reports

Daily Weather History Graph

Daily Weather History Graph

Search for Another Location

Airport:

Trip Planner

Search our weather history database for the weather conditions in past years. The results will help you decide how hot, cold, wet, or windy it might be!

Date:

Astronomy

Jan. 28, 2013 Rise Set
Actual Time 7:08 AM EST 5:32 PM EST
Civil Twilight 6:42 AM EST 5:59 PM EST
Nautical Twilight 6:11 AM EST 6:29 PM EST
Astronomical Twilight 5:41 AM EST 6:59 PM EST
Moon 7:18 PM EST (1/28) 7:38 AM EST (1/28)
Length of Visible Light 11h 17m
Length of Day
10h 23m
Full, 98% of the Moon is Illuminated
Jan 28
Full
Feb 3
Last Quarter
Feb 10
New
Feb 17
First Quarter
Feb 25
Full

Hourly Weather History & Observations

Time (EST) Temp. Windchill Dew Point Humidity Pressure Visibility Wind Dir Wind Speed Gust Speed Precip Events Conditions
12:54 AM 30.9 °F 26.2 °F 25.0 °F 79% 30.51 in 10.0 mi North 4.6 mph - N/A   Clear
1:54 AM 30.0 °F - 26.1 °F 85% 30.51 in 10.0 mi Calm Calm - N/A   Clear
2:54 AM 32.0 °F 27.5 °F 27.0 °F 82% 30.50 in 10.0 mi North 4.6 mph - N/A   Partly Cloudy
3:54 AM 34.0 °F 29.8 °F 28.9 °F 82% 30.47 in 10.0 mi NE 4.6 mph - N/A   Clear
4:54 AM 36.0 °F 31.1 °F 30.0 °F 79% 30.47 in 10.0 mi NNE 5.8 mph - N/A   Clear
5:54 AM 37.0 °F 33.3 °F 30.9 °F 79% 30.47 in 10.0 mi North 4.6 mph - N/A   Mostly Cloudy
6:54 AM 36.0 °F 30.3 °F 30.0 °F 79% 30.47 in 10.0 mi NNE 6.9 mph - N/A   Mostly Cloudy
7:54 AM 37.0 °F 32.4 °F 30.9 °F 79% 30.47 in 10.0 mi NE 5.8 mph - N/A   Mostly Cloudy
8:54 AM 37.9 °F 34.4 °F 30.9 °F 76% 30.48 in 10.0 mi North 4.6 mph - 0.00 in Rain Light Rain
9:54 AM 39.0 °F 36.8 °F 33.1 °F 79% 30.48 in 10.0 mi East 3.5 mph - 0.00 in   Overcast
10:54 AM 42.1 °F 38.4 °F 35.1 °F 76% 30.48 in 10.0 mi NNE 5.8 mph - N/A   Overcast
11:54 AM 45.0 °F 42.6 °F 36.0 °F 71% 30.44 in 10.0 mi NNE 4.6 mph - N/A   Overcast
12:54 PM 48.0 °F - 39.0 °F 71% 30.39 in 10.0 mi Calm Calm - N/A   Overcast
1:54 PM 51.1 °F - 41.0 °F 68% 30.35 in 10.0 mi Calm Calm - N/A   Mostly Cloudy
2:54 PM 55.0 °F - 43.0 °F 64% 30.33 in 10.0 mi Calm Calm - N/A   Mostly Cloudy
3:54 PM 59.0 °F - 48.0 °F 67% 30.30 in 10.0 mi South 5.8 mph - N/A   Mostly Cloudy
4:54 PM 59.0 °F - 50.0 °F 72% 30.31 in 10.0 mi SW 9.2 mph - N/A   Overcast
5:54 PM 55.9 °F - 48.9 °F 77% 30.30 in 10.0 mi SSW 4.6 mph - N/A   Overcast
6:54 PM 53.1 °F - 48.9 °F 86% 30.30 in 10.0 mi SW 4.6 mph - N/A   Mostly Cloudy
7:54 PM 53.1 °F - 48.9 °F 86% 30.30 in 9.0 mi South 5.8 mph - N/A   Mostly Cloudy
8:54 PM 53.1 °F - 50.0 °F 89% 30.29 in 8.0 mi WSW 5.8 mph - N/A   Partly Cloudy
9:54 PM 55.9 °F - 53.1 °F 90% 30.27 in 9.0 mi SSW 8.1 mph - N/A   Partly Cloudy
10:54 PM 57.9 °F - 55.9 °F 93% 30.26 in 10.0 mi SW 10.4 mph - N/A   Partly Cloudy
11:54 PM 57.0 °F - 54.0 °F 89% 30.26 in 9.0 mi SW 6.9 mph - N/A   Partly Cloudy